Location: *
(1.3500°S, 147.5000°W)
Time: 13:55:37
(UTC+00:00)

Cosmos 1939 Rocket - Pass Details

Date: 07 April 2020
Orbit: 533 x 584 km, 97.4° (Epoch: 04 June)

Event Time Altitude Azimuth Distance (km) Brightness Sun altitude
Rises 04:55:35 0° 172° (S) 2,768 6.2 -15.9°
Reaches altitude 10° 04:57:45 10° 174° (S) 1,860 5.4 -16.5°
Maximum altitude 05:01:46 75° 259° (W) 580 3.0 -17.4°
Drops below altitude 10° 05:05:41 10° 344° (NNW) 1,819 5.7 -18.4°
Sets 05:07:47 0° 346° (NNW) 2,700 6.6 -18.9°
